[[{"header":{"parameterUnit":"m.s-1","parameterCategory":1,"la1":30.2991,"la2":30.254,"lo1":-89.0895,"lo2":-89.0444,"dy":0.0017,"dx":0.0017,"nx":28,"ny":28,"refTime":"2024-04-30T09:00:00:Z","depth":0,"parameterNumber":2,"parameterNumberName":"U-component_of_WINDS"},"data":[0,0,0,0,0,0,0,0,0,0,0,0,0,0,0,0,0,0,0,0,0,0,0,0,0,0,0,0,0,0,0,0,0,0,0,0,0,0,0,0,0,0,0,0,0,0,0,0,0,0,0,0,0,0,0,0,0,0,-2.3536,-2.3536,0,-2.3576,-2.3576,-2.3577,-2.3524,-2.3522,-2.3521,-2.3519,-2.356,-2.3563,-2.3566,0,0,0,0,0,0,0,0,0,0,0,0,0,-2.3415,-2.3418,-2.3535,-2.3536,-2.3536,-2.3576,-2.3576,-2.3577,-2.3525,-2.3522,-2.352,-2.3518,-2.3559,-2.3563,-2.3566,0,0,0,0,0,0,0,0,0,0,0,0,0,-2.3463,-2.3418,-2.3535,-2.3515,-2.3514,-2.3575,-2.3576,-2.3577,-2.3525,-2.3522,-2.3519,-2.3517,-2.3558,-2.3562,-2.3567,-2.365,0,0,-2.358,-2.3582,0,0,0,0,0,0,0,0,-2.346,-2.3467,-2.3518,-2.3517,-2.3515,-2.3542,-2.3549,-2.3601,-2.3526,-2.3521,-2.3519,-2.3515,-2.3557,-2.3561,-2.3575,-2.3652,-2.3654,-2.358,-2.3583,-2.3585,-2.3586,0,0,0,0,0,0,0,-2.3457,-2.3465,-2.3551,-2.3518,-2.3517,-2.3505,-2.3508,-2.3559,-2.3554,-2.3521,-2.3517,-2.3523,-2.3555,-2.3571,-2.3575,-2.3655,-2.358,-2.3584,-2.3587,-2.3588,-2.3804,-2.3807,0,0,0,0,0,0,-2.3456,-2.3463,-2.355,-2.3552,-2.348,-2.3509,-2.3513,-2.3536,-2.3553,-2.3553,-2.3525,-2.352,-2.3565,-2.357,-2.3577,-2.3676,-2.3585,-2.3589,-2.3591,-2.3801,-2.3804,-2.3808,0,0,0,0,0,0,-2.3453,-2.3464,-2.3548,-2.3507,-2.3516,-2.3514,-2.3541,-2.3539,-2.3554,-2.3557,-2.3556,-2.3541,-2.3563,-2.357,-2.3632,-2.3676,-2.3591,-2.3595,-2.3797,-2.3802,-2.3806,-2.3875,0,0,0,0,0,0,-2.345,-2.3463,-2.3495,-2.3508,-2.3519,-2.3603,-2.3543,-2.3541,-2.3561,-2.3555,-2.3572,-2.3572,-2.3561,-2.3626,-2.3637,-2.3681,-2.3598,-2.3793,-2.3799,-2.3805,-2.3868,-2.3881,-2.3892,0,0,0,0,0,-2.3446,-2.3512,-2.3497,-2.3507,-2.3558,-2.3606,-2.3612,-2.3599,-2.3565,-2.3597,-2.3599,-2.3571,-2.367,-2.3633,-2.3644,-2.369,-2.379,-2.3797,-2.3804,-2.3863,-2.3879,-2.3892,0,0,0,0,0,0,-2.3504,-2.3514,-2.3496,-2.3569,-2.3587,-2.3597,-2.3636,-2.3615,-2.3644,-2.3637,-2.3619,-2.3623,-2.3689,-2.3696,-2.3655,-2.3773,-2.3725,-2.3734,-2.3766,-2.378,-2.3792,-2.3789,-2.3602,0,0,0,0,0,-2.3526,-2.3564,-2.357,-2.3633,-2.3643,-2.3639,-2.3659,-2.3647,-2.3665,-2.3673,-2.3679,-2.3699,-2.3734,-2.3758,-2.379,-2.387,-2.3873,-2.3907,-2.3919,-2.3928,-2.3937,-2.398,-2.3995,-2.3831,-2.3831,-2.3831,0,0,-2.357,-2.358,-2.3605,-2.3645,-2.3658,-2.3698,-2.3645,-2.369,-2.372,-2.368,-2.3738,-2.3744,-2.3765,-2.3836,-2.3868,-2.3844,-2.3983,-2.3937,-2.3945,-2.3948,-2.3989,-2.4004,-2.4018,-2.3836,-2.3835,-2.3834,0,0,-2.3671,-2.3682,-2.3737,-2.3751,-2.3771,-2.3768,-2.3781,-2.3795,-2.3797,-2.3856,-2.3827,-2.3863,-2.3924,-2.394,-2.3956,-2.4065,-2.4041,-2.4076,-2.4137,-2.418,-2.4193,-2.4204,-2.4243,-2.4257,-2.4085,-2.4085,-2.4085,0,-2.3723,-2.3783,-2.3767,-2.3814,-2.3833,-2.3799,-2.3854,-2.3869,-2.3899,-2.3913,-2.3886,-2.3963,-2.3974,-2.4049,-2.4076,-2.409,-2.4105,-2.4074,-2.4192,-2.4203,-2.4214,-2.4251,-2.4266,-2.4089,-2.4089,-2.4088,-2.4088,0,-2.3846,-2.3888,-2.393,-2.396,-2.3983,-2.4034,-2.4027,-2.4053,-2.404,-2.404,-2.4101,-2.4113,-2.4148,-2.4165,-2.4153,-2.4239,-2.4224,-2.4195,-2.4146,-2.4234,-2.4268,-2.4283,-2.4095,-2.4094,-2.4092,-2.4091,0,0,-2.3984,-2.4006,-2.4021,-2.4035,-2.4056,-2.4088,-2.4138,-2.4172,-2.4195,-2.4217,-2.4259,-2.4313,-2.4286,-2.4305,-2.4294,-2.4331,-2.4417,-2.4297,-2.4298,-2.4319,-2.4514,-2.4535,-2.4552,-2.4402,-2.4404,-2.4407,-2.4512,0,-2.4085,-2.4171,-2.4159,-2.4242,-2.4281,-2.425,-2.4294,-2.4312,-2.4313,-2.4347,-2.4349,-2.4387,-2.4349,-2.436,-2.4396,-2.4399,-2.4456,-2.4391,-2.4441,-2.4443,-2.4436,-2.457,-2.4592,-2.4691,-2.4525,-2.4528,-2.4529,0,-2.4214,-2.4242,-2.4328,-2.4344,-2.436,-2.4399,-2.443,-2.4463,-2.4483,-2.4481,-2.4503,-2.4485,-2.4536,-2.4487,-2.4558,-2.4514,-2.4534,-2.4539,-2.4542,-2.4546,-2.4491,-2.4577,-2.4722,-2.4737,-2.455,-2.4549,-2.4547,0,-2.4306,-2.4364,-2.4424,-2.4437,-2.4456,-2.4485,-2.4495,-2.4512,-2.4534,-2.4561,-2.4575,-2.4609,-2.4627,-2.4653,-2.4646,-2.4611,-2.4718,-2.4668,-2.4719,-2.4719,-2.4742,-2.474,-2.4892,-2.4755,-2.4755,-2.4755,-2.4755,0,-2.442,-2.4474,-2.4466,-2.4502,-2.4562,-2.4549,-2.4609,-2.4615,-2.4631,-2.4669,-2.4645,-2.4681,-2.4669,-2.4705,-2.4699,-2.4758,-2.4767,-2.4768,-2.4765,-2.4769,-2.4769,-2.4781,-2.4774,-2.4759,-2.4758,-2.4757,-2.4757,0,-2.4531,-2.4528,-2.4591,-2.4605,-2.461,-2.4654,-2.4666,-2.4701,-2.4701,-2.4749,-2.476,-2.4761,-2.4801,-2.4797,-2.4843,-2.4839,-2.4913,-2.4902,-2.4906,-2.4903,-2.4954,-2.4949,-2.5118,-2.514,-2.499,-2.4991,-2.4992,0,-2.4604,-2.4645,-2.4664,-2.4687,-2.4699,-2.4737,-2.4759,-2.4749,-2.4773,-2.48,-2.4832,-2.4871,-2.4901,-2.4968,-2.4973,-2.5008,-2.4998,-2.5055,-2.5003,-2.5006,-2.4999,-2.4996,-2.5,-2.5065,-2.5067,-2.5068,-2.5069,0,-2.4733,-2.473,-2.4762,-2.4796,-2.4823,-2.4849,-2.4872,-2.4892,-2.4884,-2.4913,-2.4954,-2.4978,-2.5025,-2.5064,-2.5098,-2.5108,-2.5088,-2.5086,-2.5099,-2.5103,-2.5103,-2.5104,-2.4933,-2.5082,-2.508,-2.5079,-2.5079,-2.5078,-2.4827,-2.4862,-2.4881,-2.4919,-2.4936,-2.4958,-2.4992,-2.4997,-2.5031,-2.5069,-2.506,-2.5108,-2.5128,-2.5171,-2.5185,-2.5222,-2.5201,-2.5221,-2.5226,-2.5231,-2.5236,-2.5098,-2.5228,-2.5228,-2.5228,-2.5227,-2.5227,0,-2.4955,-2.4966,-2.5001,-2.5034,-2.5064,-2.5043,-2.5068,-2.5094,-2.5136,-2.5157,-2.5187,-2.5236,-2.5274,-2.5282,-2.5319,-2.5347,-2.5339,-2.5357,-2.5355,-2.5358,-2.5253,-2.5237,-2.5363,-2.5363,-2.5363,-2.5363,-2.5363,-2.5363,-2.5024,-2.5083,-2.5083,-2.515,-2.516,-2.5206,-2.5222,-2.5243,-2.526,-2.5315,-2.5347,-2.5352,-2.5368,-2.5406,-2.544,-2.5442,-2.5457,-2.5479,-2.5477,-2.5379,-2.5365,-2.5352,-2.5337,-2.5482,-2.5482,-2.5578,-2.5579,-2.558]},{"header":{"parameterUnit":"m.s-1","parameterCategory":1,"la1":30.2991,"la2":30.254,"lo1":-89.0895,"lo2":-89.0444,"dy":0.0017,"dx":0.0017,"nx":28,"ny":28,"refTime":"2024-04-30T09:00:00:Z","depth":0,"parameterNumber":3,"parameterNumberName":"V-component_of_WINDS"},"data":[0,0,0,0,0,0,0,0,0,0,0,0,0,0,0,0,0,0,0,0,0,0,0,0,0,0,0,0,0,0,0,0,0,0,0,0,0,0,0,0,0,0,0,0,0,0,0,0,0,0,0,0,0,0,0,0,0,0,0.3948,0.3948,0,0.3971,0.3971,0.3971,0.3981,0.3981,0.3981,0.3981,0.4004,0.4004,0.4005,0,0,0,0,0,0,0,0,0,0,0,0,0,0.3913,0.3914,0.3948,0.3948,0.3948,0.3971,0.3971,0.3971,0.3981,0.3981,0.3981,0.3981,0.4003,0.4004,0.4005,0,0,0,0,0,0,0,0,0,0,0,0,0,0.3931,0.3914,0.3948,0.3956,0.3957,0.397,0.3971,0.3971,0.3981,0.3981,0.3981,0.3981,0.4003,0.4004,0.4005,0.4012,0,0,0.4008,0.4008,0,0,0,0,0,0,0,0,0.393,0.3933,0.3954,0.3955,0.3956,0.3973,0.3967,0.3985,0.3981,0.3972,0.3981,0.3981,0.3993,0.3995,0.3999,0.4013,0.4014,0.4008,0.4009,0.4009,0.4009,0,0,0,0,0,0,0,0.3929,0.3932,0.3957,0.3955,0.3956,0.3959,0.3961,0.397,0.3983,0.3973,0.3973,0.3976,0.3994,0.3999,0.4,0.4014,0.4008,0.4009,0.4009,0.401,0.4036,0.4036,0,0,0,0,0,0,0.3926,0.393,0.3956,0.3957,0.3943,0.3959,0.3962,0.3968,0.3982,0.3985,0.3976,0.3976,0.3997,0.3999,0.4001,0.4011,0.4009,0.401,0.401,0.4036,0.4036,0.4036,0,0,0,0,0,0,0.3926,0.3929,0.3955,0.3944,0.3948,0.396,0.3966,0.3968,0.3973,0.3985,0.3987,0.3978,0.3997,0.4,0.4009,0.4012,0.401,0.4011,0.4035,0.4036,0.4036,0.403,0,0,0,0,0,0,0.3925,0.3928,0.3931,0.3944,0.3948,0.3963,0.3966,0.3969,0.3974,0.3975,0.3988,0.399,0.3997,0.4008,0.401,0.4013,0.4012,0.4035,0.4036,0.4036,0.403,0.403,0.4029,0,0,0,0,0,0.3923,0.3928,0.3931,0.3934,0.3952,0.3963,0.3965,0.3974,0.3975,0.3977,0.3986,0.399,0.4011,0.4009,0.4012,0.4014,0.4035,0.4036,0.4036,0.403,0.403,0.4029,0,0,0,0,0,0,0.3913,0.3929,0.3933,0.3942,0.3951,0.3965,0.3968,0.3973,0.3982,0.3982,0.3992,0.3995,0.4004,0.401,0.4008,0.4023,0.4024,0.4024,0.4018,0.4018,0.4018,0.4016,0.4013,0,0,0,0,0,0.3912,0.392,0.3934,0.394,0.3945,0.3956,0.3961,0.3967,0.3977,0.3981,0.3989,0.3999,0.4008,0.4013,0.4022,0.4031,0.4034,0.4034,0.4034,0.4034,0.4035,0.4041,0.4041,0.4037,0.4037,0.4037,0,0,0.391,0.392,0.3924,0.3939,0.3947,0.3955,0.3959,0.3967,0.3974,0.3982,0.3992,0.3999,0.401,0.4019,0.4024,0.4025,0.4037,0.4034,0.4034,0.4035,0.4041,0.4041,0.4042,0.4037,0.4037,0.4037,0,0,0.391,0.3918,0.3925,0.3933,0.3945,0.3953,0.3954,0.3968,0.3973,0.3983,0.399,0.3997,0.4012,0.402,0.4026,0.4031,0.4035,0.4034,0.4033,0.4039,0.4039,0.4039,0.4041,0.4042,0.4034,0.4034,0.4034,0,0.3906,0.3918,0.3928,0.3936,0.3943,0.3951,0.3958,0.3966,0.398,0.3984,0.3985,0.4005,0.4013,0.4025,0.4026,0.4031,0.4033,0.4032,0.4038,0.4039,0.4039,0.4041,0.4042,0.4034,0.4034,0.4034,0.4034,0,0.3912,0.3921,0.3925,0.3939,0.3947,0.3954,0.3965,0.3971,0.3977,0.3984,0.3995,0.4006,0.4017,0.402,0.4025,0.4034,0.4034,0.4036,0.4037,0.4039,0.4041,0.4042,0.4034,0.4034,0.4034,0.4034,0,0,0.3906,0.3926,0.3928,0.3935,0.3949,0.3956,0.3965,0.3977,0.3982,0.3992,0.3999,0.4012,0.4015,0.4022,0.4029,0.4034,0.4038,0.4036,0.4036,0.4036,0.4048,0.4046,0.4046,0.4041,0.4041,0.4041,0.4047,0,0.3908,0.3924,0.3933,0.3945,0.3953,0.3963,0.397,0.398,0.3988,0.3996,0.4005,0.4014,0.4017,0.4021,0.4027,0.4036,0.404,0.4036,0.4048,0.4048,0.4045,0.4048,0.4045,0.405,0.4048,0.4048,0.4048,0,0.3912,0.3923,0.3935,0.395,0.3954,0.3961,0.3973,0.3981,0.3993,0.3998,0.4007,0.4013,0.4023,0.4024,0.4038,0.4035,0.4041,0.4046,0.4046,0.4048,0.4048,0.4049,0.4052,0.4052,0.405,0.4049,0.4049,0,0.3907,0.3924,0.3934,0.394,0.3957,0.3962,0.3969,0.3981,0.3988,0.3999,0.4003,0.4015,0.4021,0.403,0.404,0.404,0.4053,0.4055,0.4058,0.4058,0.406,0.406,0.4064,0.4064,0.4064,0.4064,0.4064,0,0.3908,0.3915,0.3932,0.3938,0.3947,0.3958,0.3967,0.3975,0.3986,0.3994,0.4003,0.401,0.4023,0.4032,0.404,0.4051,0.4054,0.4058,0.406,0.4057,0.4057,0.4061,0.4061,0.4064,0.4064,0.4064,0.4064,0,0.3903,0.3914,0.3926,0.3942,0.3946,0.3952,0.3966,0.3972,0.3981,0.3992,0.3995,0.4008,0.402,0.4031,0.4046,0.4051,0.4062,0.4065,0.4058,0.4059,0.4062,0.4062,0.4069,0.407,0.4069,0.4069,0.4069,0,0.3903,0.3909,0.3926,0.3932,0.394,0.395,0.3957,0.3969,0.3976,0.3991,0.3996,0.4008,0.4019,0.4037,0.4048,0.406,0.4063,0.4065,0.4065,0.4062,0.4063,0.4063,0.4064,0.4064,0.4064,0.4064,0.4064,0,0.3902,0.3907,0.3918,0.393,0.3939,0.3949,0.396,0.3965,0.3979,0.3987,0.3999,0.4007,0.4023,0.4036,0.4049,0.4057,0.4063,0.4064,0.4066,0.4063,0.4059,0.4061,0.4057,0.4064,0.4064,0.4064,0.4064,0.4064,0.3899,0.3906,0.3919,0.393,0.394,0.395,0.3957,0.3968,0.3978,0.3992,0.3999,0.4011,0.4024,0.4043,0.4051,0.4061,0.4062,0.4064,0.4065,0.4065,0.4065,0.4058,0.4064,0.4064,0.4064,0.4064,0.4064,0,0.3899,0.3908,0.3919,0.3934,0.3943,0.3949,0.3962,0.3969,0.398,0.3992,0.4002,0.4017,0.4029,0.4042,0.4055,0.406,0.4064,0.4063,0.4063,0.4065,0.4063,0.406,0.4061,0.4061,0.4061,0.4061,0.4061,0.4061,0.39,0.3911,0.3918,0.3935,0.3944,0.3957,0.3963,0.3973,0.3983,0.3999,0.4009,0.4018,0.403,0.4044,0.4056,0.4059,0.4064,0.4063,0.4067,0.4065,0.4065,0.4065,0.4063,0.4064,0.4064,0.4069,0.4069,0.4069]}]]